Home > Weather > Liestal > Past weeks

Flag for Switzerland Past Weather in Liestal, Basel-Land, Switzerland — Yesterday and Last 2 Weeks

Now
68 °F

Thunderstorms. Partly cloudy.


Feels Like: 68 °F
Forecast: 63 / 76 °F
Wind: 8 mph from Northeast

Location: Bale-Mulhouse

Current Time: Jun 25, 2016 at 1:49:46 AM

Latest Report: Jun 25, 2016 at 1:00 AM


Visibility: 6 mi

Pressure: 30.01 "Hg

Humidity: 94%

Dew Point: 66 °F

Location of LiestalLocation

Past Weather in Liestal — Graph

°F

Liestal Temperature Yesterday

Maximum temperature yesterday: 90 °F (at 4:00 PM)
Minimum temperature yesterday: 68 °F (at 5:30 AM)
Average temperature yesterday: 79 °F

High & Low Weather Summary for the Past Weeks

 TemperatureHumidityPressure
High93 °F (Jun 23, 5:00 PM)100% (Jun 10, 5:00 AM)30.27 "Hg (Jun 10, 5:00 AM)
Low46 °F (Jun 20, 5:30 AM)36% (Jun 10, 4:30 PM)29.59 "Hg (Jun 15, 4:00 AM)
Average64 °F79%29.95 "Hg
* Reported Jun 10 12:00 AM — Jun 25 12:30 AM, Liestal, Weather by CustomWeather, © 2016

Note: Actual official high and low records may vary slightly from our data, if they occured in-between our weather recording intervals... More about our weather records

Advertising

Liestal Weather History for the Previous 24 Hours

Scroll right to see more
 ConditionsComfort  
Time TempWeatherWind HumidityBarometerVisibility
12:30 AM
Sat, Jun 25
68 °FStrong thunderstorms. Fog.22 mph94%30.01 "Hg1 mi
12:00 AM73 °FThundershowers. Passing clouds.9 mph78%30.01 "HgN/A
11:30 PM
Fri, Jun 24
73 °FPassing clouds.9 mph78%29.98 "HgN/A
11:00 PM73 °FPassing clouds.10 mph83%29.98 "HgN/A
10:30 PM73 °FThundershowers. Scattered clouds.8 mph78%29.98 "HgN/A
10:00 PM75 °FThunderstorms. Scattered clouds.5 mph74%29.98 "HgN/A
9:30 PM75 °FThundershowers. Passing clouds.7 mph74%29.98 "HgN/A
9:00 PM79 °FThundershowers. Scattered clouds.10 mph65%29.98 "HgN/A
8:30 PM81 °FScattered clouds.10 mph66%29.98 "HgN/A
8:00 PM84 °FScattered clouds.8 mph58%29.98 "HgN/A
7:30 PM86 °FPassing clouds.7 mph55%29.98 "HgN/A
7:00 PM88 °FPassing clouds.7 mph49%29.98 "HgN/A
6:30 PM88 °FPassing clouds.7 mph52%29.98 "HgN/A
6:00 PM88 °FPassing clouds.7 mph49%29.98 "HgN/A
5:30 PM88 °FPassing clouds.6 mph46%29.98 "HgN/A
5:00 PM90 °FPassing clouds.7 mph46%30.01 "HgN/A
4:30 PM90 °FSunny.8 mph43%30.01 "Hg10 mi
4:00 PM90 °FPassing clouds.8 mph46%30.01 "HgN/A
3:30 PM88 °FPassing clouds.8 mph46%30.01 "HgN/A
3:00 PM88 °FPassing clouds.8 mph49%30.04 "HgN/A
2:30 PM88 °FPassing clouds.8 mph46%30.04 "HgN/A
2:00 PM88 °FPassing clouds.6 mph43%30.04 "HgN/A
1:30 PM86 °FPassing clouds.9 mph52%30.07 "HgN/A
1:00 PM86 °FPassing clouds.9 mph49%30.07 "HgN/A
12:30 PM86 °FPassing clouds.8 mph46%30.07 "HgN/A
12:00 PM84 °FPassing clouds.8 mph48%30.07 "HgN/A
11:30 AM84 °FPassing clouds.8 mph45%30.09 "HgN/A
11:00 AM84 °FPassing clouds.8 mph48%30.07 "HgN/A
10:30 AM82 °FPassing clouds.7 mph51%30.09 "HgN/A
10:00 AM82 °FSunny.2 mph58%30.09 "Hg10 mi
9:30 AM81 °FSunny.2 mph66%30.09 "Hg10 mi
9:00 AM79 °FSunny.2 mph70%30.09 "Hg10 mi
8:30 AM77 °FSunny.3 mph69%30.09 "Hg10 mi
8:00 AM73 °FPassing clouds.3 mph78%30.09 "HgN/A
7:30 AM73 °FPassing clouds.3 mph83%30.09 "HgN/A
7:00 AM70 °FPassing clouds.3 mph88%30.09 "HgN/A
6:30 AM68 °FPassing clouds.2 mph94%30.09 "HgN/A
6:00 AM68 °FPassing clouds.2 mph88%30.09 "HgN/A
5:30 AM68 °FClear.No wind88%30.07 "Hg10 mi
5:00 AM70 °FClear.2 mph88%30.07 "Hg10 mi
4:30 AM70 °FClear.3 mph94%30.07 "Hg10 mi
4:00 AM70 °FMild.5 mph94%30.07 "HgN/A
3:30 AM70 °FPassing clouds.3 mph94%30.09 "HgN/A
3:00 AM70 °FClear.No wind88%30.07 "Hg10 mi
2:30 AM70 °FClear.No wind88%30.07 "Hg10 mi
2:00 AM70 °FClear.2 mph94%30.07 "Hg10 mi
1:30 AM72 °FClear.No wind88%30.07 "Hg10 mi
1:00 AM72 °FClear.2 mph88%30.07 "Hg10 mi
Weather by CustomWeather, © 2016

See weather overviewHow to use our weather pages